M I D A S
Marine Information and Data Acquisition System
Tripno 2026 of the Zeeleeuw from 2010-11-25 07:16:49 to 2010-11-25 15:35:39
Back to CruiseResearch ActivitiesStationsMapUnderway DataData graphs

EquipmentUnitsComments
TimeDGPSUTC
LatitudeDGPSDM.mWGS84
LongitudeDGPSDM.mWGS84
SpeedMeteo Stationm/sRelative wind speed
DirectionMeteo StationdegRelative wind direction
TemperatureMeteo Stationdeg CelciusAir temperature
PressureMeteo StationPaAtmospheric pressure
HumidityMeteo Station%Relative humidity
Missing or incorrect values are displayed as -999
Metereological data collected by the RV Zeeleeuw from 2010-11-25 07:11:19 to 2010-11-25 15:47:48
                                                                                    Next 1000 lines
Time Latitude Longitude Speed Direction Temperature Pressure Humidity
2010-11-25 07:11:29 51°13.663 2°55.959 0.1 8 2 100380 42
2010-11-25 07:11:35 51°13.663 2°55.959 1.1 8 2 100370 42
2010-11-25 07:11:39 51°13.662 2°55.959 0.2 4 2 100370 42
2010-11-25 07:11:44 51°13.662 2°55.959 0.4 8 2 100370 42
2010-11-25 07:11:50 51°13.662 2°55.959 0.1 13 2 100370 42
2010-11-25 07:11:55 51°13.662 2°55.959 0.1 18 2 100380 42
2010-11-25 07:11:59 51°13.662 2°55.959 -999 13 2 100380 42
2010-11-25 07:12:04 51°13.662 2°55.959 -999 20 2 100380 41
2010-11-25 07:12:10 51°13.662 2°55.959 0.1 22 2 100380 41
2010-11-25 07:12:15 51°13.662 2°55.959 0.9 17 2 100370 42
2010-11-25 07:12:19 51°13.662 2°55.959 0.8 11 2 100370 42
2010-11-25 07:12:24 51°13.662 2°55.959 0.1 15 2 100380 42
2010-11-25 07:12:29 51°13.662 2°55.959 0.1 15 2 100380 42
2010-11-25 07:12:35 51°13.662 2°55.959 -999 14 2 100380 41
2010-11-25 07:12:39 51°13.662 2°55.959 1.2 21 2 100380 41
2010-11-25 07:12:44 51°13.662 2°55.959 1 22 2 100370 42
2010-11-25 07:12:50 51°13.662 2°55.959 0.1 22 2 100370 42
2010-11-25 07:12:55 51°13.662 2°55.959 0.1 14 2 100370 42
2010-11-25 07:12:59 51°13.662 2°55.959 0.1 12 2 100370 42
2010-11-25 07:13:04 51°13.662 2°55.959 0.1 12 2 100370 42
2010-11-25 07:13:09 51°13.662 2°55.959 -999 23 2 100370 42
2010-11-25 07:13:14 51°13.663 2°55.959 -999 10 2 100370 42
2010-11-25 07:13:19 51°13.663 2°55.959 -999 22 2 100370 42
2010-11-25 07:13:24 51°13.662 2°55.959 -999 17 2 100370 42
2010-11-25 07:13:29 51°13.662 2°55.959 -999 16 2 100370 42
2010-11-25 07:13:34 51°13.662 2°55.959 -999 18 2 100370 42
2010-11-25 07:13:39 51°13.662 2°55.958 0.9 12 2 100370 42
2010-11-25 07:13:44 51°13.662 2°55.958 1.1 11 2 100370 42
2010-11-25 07:13:49 51°13.662 2°55.958 1 15 2 100370 42
2010-11-25 07:13:54 51°13.662 2°55.958 1 8 2 100370 42
2010-11-25 07:13:59 51°13.662 2°55.958 0.9 18 2 100370 42
2010-11-25 07:14:04 51°13.662 2°55.958 1.3 3 2 100370 41
2010-11-25 07:14:10 51°13.662 2°55.958 0.8 14 2 100370 41
2010-11-25 07:14:14 51°13.662 2°55.958 1.1 359 2 100370 40
2010-11-25 07:14:19 51°13.662 2°55.958 0.6 11 2 100370 40
2010-11-25 07:14:24 51°13.662 2°55.958 0.9 8 2 100370 43
2010-11-25 07:14:29 51°13.662 2°55.958 0.2 23 2 100370 43
2010-11-25 07:14:35 51°13.662 2°55.958 0.1 30 2 100370 44
2010-11-25 07:14:39 51°13.662 2°55.958 2.9 27 2 100370 44
2010-11-25 07:14:44 51°13.662 2°55.958 0.5 21 2 100370 41
2010-11-25 07:14:50 51°13.662 2°55.958 0.1 18 2 100370 41
2010-11-25 07:14:55 51°13.662 2°55.958 0.1 24 2 100370 42
2010-11-25 07:14:59 51°13.662 2°55.958 0.1 19 2 100370 42
2010-11-25 07:15:04 51°13.662 2°55.958 -999 11 2 100370 42
2010-11-25 07:15:09 51°13.662 2°55.958 -999 25 2 100370 42
2010-11-25 07:15:14 51°13.662 2°55.959 -999 21 2 100380 42
2010-11-25 07:15:19 51°13.662 2°55.959 -999 8 2 100380 42
2010-11-25 07:15:24 51°13.662 2°55.959 0.1 20 2 100370 42
2010-11-25 07:15:29 51°13.662 2°55.959 0.1 24 2 100370 42
2010-11-25 07:15:35 51°13.662 2°55.959 -999 14 2 100380 42
2010-11-25 07:15:39 51°13.662 2°55.959 -999 18 2 100380 42
2010-11-25 07:15:44 51°13.663 2°55.959 -999 31 2 100370 42
2010-11-25 07:15:49 51°13.663 2°55.959 -999 8 2 100370 42
2010-11-25 07:15:55 51°13.663 2°55.959 -999 17 2 100370 42
2010-11-25 07:15:59 51°13.663 2°55.959 -999 17 2 100370 42
2010-11-25 07:16:03 51°13.663 2°55.959 -999 17 2 100380 42
2010-11-25 07:16:09 51°13.663 2°55.959 -999 30 2 100380 42
2010-11-25 07:16:15 51°13.662 2°55.959 -999 15 2 100370 42
2010-11-25 07:16:19 51°13.663 2°55.959 -999 16 2 100370 42
2010-11-25 07:16:24 51°13.663 2°55.959 -999 9 2 100370 42
2010-11-25 07:16:29 51°13.663 2°55.958 -999 16 2 100370 42
2010-11-25 07:16:35 51°13.663 2°55.959 -999 10 2 100380 42
2010-11-25 07:16:39 51°13.662 2°55.959 -999 9 2 100380 42
2010-11-25 07:16:44 51°13.662 2°55.959 -999 18 2 100380 42
2010-11-25 07:16:50 51°13.662 2°55.959 -999 12 2 100380 42
2010-11-25 07:16:54 51°13.662 2°55.959 -999 21 2 100380 42
2010-11-25 07:16:59 51°13.662 2°55.959 -999 18 2 100380 42
2010-11-25 07:17:04 51°13.662 2°55.959 -999 19 2 100370 42
2010-11-25 07:17:09 51°13.663 2°55.96 -999 17 2 100370 42
2010-11-25 07:17:15 51°13.664 2°55.96 -999 21 2 100380 42
2010-11-25 07:17:19 51°13.664 2°55.96 -999 15 2 100380 42
2010-11-25 07:17:24 51°13.663 2°55.96 -999 15 2 100380 41
2010-11-25 07:17:29 51°13.663 2°55.96 -999 13 2 100380 41
2010-11-25 07:17:35 51°13.662 2°55.959 -999 14 2 100380 42
2010-11-25 07:17:39 51°13.662 2°55.959 0.9 15 2 100380 42
2010-11-25 07:17:44 51°13.662 2°55.959 0.5 15 2 100370 42
2010-11-25 07:17:49 51°13.662 2°55.96 0.1 18 2 100370 42
2010-11-25 07:17:55 51°13.663 2°55.96 0.1 13 1.9 100380 42
2010-11-25 07:17:59 51°13.663 2°55.96 0.5 12 1.9 100380 42
2010-11-25 07:18:04 51°13.663 2°55.96 0.2 17 1.9 100380 42
2010-11-25 07:18:10 51°13.663 2°55.96 0.1 11 1.9 100380 42
2010-11-25 07:18:14 51°13.663 2°55.96 -999 8 1.9 100380 42
2010-11-25 07:18:19 51°13.663 2°55.96 -999 3 1.9 100380 42
2010-11-25 07:18:24 51°13.663 2°55.96 -999 355 1.9 100380 42
2010-11-25 07:18:30 51°13.663 2°55.959 -999 357 1.9 100380 42
2010-11-25 07:18:34 51°13.663 2°55.96 -999 6 1.9 100380 42
2010-11-25 07:18:39 51°13.663 2°55.96 -999 13 1.9 100380 42
2010-11-25 07:18:44 51°13.664 2°55.96 -999 17 1.9 100380 42
2010-11-25 07:18:50 51°13.663 2°55.96 -999 7 1.9 100380 42
2010-11-25 07:18:55 51°13.663 2°55.96 0.1 8 1.9 100380 42
2010-11-25 07:18:59 51°13.663 2°55.96 0.1 9 1.9 100380 42
2010-11-25 07:19:03 51°13.663 2°55.96 0.1 7 1.9 100380 42
2010-11-25 07:19:09 51°13.663 2°55.96 0.1 14 1.9 100380 42
2010-11-25 07:19:14 51°13.663 2°55.96 1.1 11 1.9 100380 42
2010-11-25 07:19:19 51°13.663 2°55.96 1.2 13 1.9 100380 42
2010-11-25 07:19:24 51°13.663 2°55.96 1.1 11 1.9 100370 42
2010-11-25 07:19:29 51°13.663 2°55.96 1 359 1.9 100370 42
2010-11-25 07:19:35 51°13.663 2°55.96 0.2 7 1.9 100370 41
2010-11-25 07:19:39 51°13.663 2°55.96 0.6 11 1.9 100370 41
2010-11-25 07:19:44 51°13.663 2°55.96 0.7 12 1.9 100370 41
2010-11-25 07:19:50 51°13.663 2°55.96 0.5 7 1.9 100370 41
2010-11-25 07:19:54 51°13.663 2°55.96 0.4 7 1.9 100370 44
2010-11-25 07:19:59 51°13.663 2°55.96 0.4 13 1.9 100370 44
2010-11-25 07:20:04 51°13.663 2°55.96 0.5 17 1.9 100370 41
2010-11-25 07:20:09 51°13.663 2°55.96 0.2 10 1.9 100370 41
2010-11-25 07:20:14 51°13.663 2°55.961 0.1 8 1.9 100370 45
2010-11-25 07:20:19 51°13.664 2°55.961 -999 10 1.9 100370 45
2010-11-25 07:20:24 51°13.664 2°55.961 0.7 6 1.9 100380 47
2010-11-25 07:20:29 51°13.665 2°55.961 0.1 2 1.9 100380 47
2010-11-25 07:20:35 51°13.664 2°55.961 0.1 358 1.9 100380 46
2010-11-25 07:20:39 51°13.664 2°55.961 0.1 3 1.9 100380 46
2010-11-25 07:20:43 51°13.663 2°55.961 0.1 355 1.9 100370 46
2010-11-25 07:20:49 51°13.661 2°55.962 -999 3 1.9 100370 46
2010-11-25 07:20:54 51°13.66 2°55.961 -999 6 1.9 100380 46
2010-11-25 07:20:59 51°13.66 2°55.961 -999 14 1.9 100380 46
2010-11-25 07:21:04 51°13.66 2°55.961 -999 16 1.9 100380 45
2010-11-25 07:21:09 51°13.66 2°55.961 -999 7 1.9 100380 45
2010-11-25 07:21:15 51°13.66 2°55.961 0.9 8 1.9 100370 45
2010-11-25 07:21:19 51°13.66 2°55.961 1 15 1.9 100370 45
2010-11-25 07:21:24 51°13.66 2°55.962 0.6 12 1.9 100370 46
2010-11-25 07:21:30 51°13.661 2°55.962 1.1 20 1.9 100370 46
2010-11-25 07:21:34 51°13.662 2°55.962 1.4 18 1.9 100370 45
2010-11-25 07:21:39 51°13.662 2°55.962 1.1 18 1.9 100370 45
2010-11-25 07:21:44 51°13.662 2°55.962 1.3 18 1.9 100380 44
2010-11-25 07:21:49 51°13.662 2°55.961 0.5 15 1.9 100380 44
2010-11-25 07:21:54 51°13.661 2°55.961 0.4 17 1.9 100380 45
2010-11-25 07:21:59 51°13.661 2°55.961 0.1 25 1.9 100380 45
2010-11-25 07:22:04 51°13.661 2°55.961 0.1 28 1.9 100370 43
2010-11-25 07:22:09 51°13.661 2°55.961 -999 23 1.9 100370 43
2010-11-25 07:22:15 51°13.66 2°55.961 -999 23 1.9 100380 45
2010-11-25 07:22:19 51°13.66 2°55.96 -999 13 1.9 100380 45
2010-11-25 07:22:24 51°13.66 2°55.96 -999 10 1.9 100370 45
2010-11-25 07:22:30 51°13.66 2°55.96 -999 7 1.9 100370 45
2010-11-25 07:22:34 51°13.659 2°55.96 0.5 5 1.9 100370 45
2010-11-25 07:22:39 51°13.659 2°55.96 0.1 4 1.9 100370 45
2010-11-25 07:22:44 51°13.659 2°55.96 0.1 7 1.9 100370 44
2010-11-25 07:22:50 51°13.66 2°55.96 -999 9 1.9 100370 44
2010-11-25 07:22:54 51°13.661 2°55.96 -999 23 1.9 100370 46
2010-11-25 07:22:59 51°13.662 2°55.959 -999 13 1.9 100370 46
2010-11-25 07:23:04 51°13.662 2°55.958 0.1 31 1.9 100370 44
2010-11-25 07:23:09 51°13.662 2°55.955 0.2 36 1.9 100370 44
2010-11-25 07:23:14 51°13.663 2°55.952 0.8 37 1.9 100370 44
2010-11-25 07:23:19 51°13.664 2°55.948 0.7 32 1.9 100370 44
2010-11-25 07:23:24 51°13.665 2°55.944 0.9 33 1.9 100370 45
2010-11-25 07:23:30 51°13.667 2°55.937 2 29 1.9 100370 45
2010-11-25 07:23:35 51°13.669 2°55.931 1.7 33 1.9 100380 44
2010-11-25 07:23:41 51°13.671 2°55.923 2.1 37 1.9 100380 44
2010-11-25 07:23:47 51°13.673 2°55.914 2 34 1.9 100370 45
2010-11-25 07:23:53 51°13.676 2°55.904 1.1 34 1.9 100370 45
2010-11-25 07:23:58 51°13.677 2°55.896 1.1 34 1.9 100370 43
2010-11-25 07:24:03 51°13.679 2°55.887 0.9 37 1.9 100370 43
2010-11-25 07:24:08 51°13.681 2°55.878 0.9 37 1.9 100370 43
2010-11-25 07:24:13 51°13.683 2°55.869 0.7 35 1.9 100370 43
2010-11-25 07:24:18 51°13.685 2°55.86 1 37 1.9 100370 44
2010-11-25 07:24:23 51°13.687 2°55.851 0.8 29 1.9 100370 44
2010-11-25 07:24:28 51°13.689 2°55.842 1.3 33 1.9 100370 47
2010-11-25 07:24:33 51°13.691 2°55.834 0.4 42 1.9 100370 47
2010-11-25 07:24:38 51°13.692 2°55.825 0.2 33 1.9 100370 45
2010-11-25 07:24:43 51°13.694 2°55.817 0.1 36 1.9 100370 45
2010-11-25 07:24:48 51°13.695 2°55.808 0.1 28 1.9 100370 46
2010-11-25 07:24:53 51°13.697 2°55.8 1.3 24 1.9 100370 46
2010-11-25 07:24:58 51°13.698 2°55.792 0.2 32 1.9 100370 45
2010-11-25 07:25:03 51°13.699 2°55.785 0.1 36 1.9 100370 45
2010-11-25 07:25:07 51°13.7 2°55.779 0.1 39 1.9 100370 45
2010-11-25 07:25:13 51°13.701 2°55.771 0.1 42 1.9 100370 45
2010-11-25 07:25:17 51°13.702 2°55.765 1.9 43 1.9 100370 45
2010-11-25 07:25:22 51°13.703 2°55.759 0.5 39 1.9 100370 45
2010-11-25 07:25:27 51°13.704 2°55.753 1.2 34 1.9 100370 44
2010-11-25 07:25:32 51°13.704 2°55.748 2.2 34 1.9 100370 44
2010-11-25 07:25:37 51°13.705 2°55.743 2.2 35 1.9 100370 46
2010-11-25 07:25:42 51°13.705 2°55.74 1.9 35 1.9 100370 46
2010-11-25 07:25:47 51°13.706 2°55.738 1.4 29 1.9 100370 47
2010-11-25 07:25:51 51°13.706 2°55.737 1.1 26 1.9 100370 47
2010-11-25 07:25:56 51°13.707 2°55.736 0.3 29 1.9 100370 41
2010-11-25 07:26:01 51°13.708 2°55.734 0.2 30 1.9 100370 41
2010-11-25 07:26:06 51°13.708 2°55.733 0.1 31 1.9 100370 45
2010-11-25 07:26:11 51°13.709 2°55.73 0.6 38 1.9 100370 45
2010-11-25 07:26:15 51°13.708 2°55.728 1.2 39 1.9 100360 43
2010-11-25 07:26:20 51°13.708 2°55.725 1.3 42 1.9 100360 43
2010-11-25 07:26:25 51°13.707 2°55.722 0.2 39 1.9 100370 40
2010-11-25 07:26:30 51°13.706 2°55.719 0.8 40 1.9 100370 40
2010-11-25 07:26:35 51°13.706 2°55.716 0.7 45 1.9 100370 45
2010-11-25 07:26:40 51°13.706 2°55.715 0.8 42 1.9 100370 45
2010-11-25 07:26:45 51°13.707 2°55.714 0.9 45 1.9 100360 43
2010-11-25 07:26:50 51°13.709 2°55.714 0.4 43 1.9 100360 43
2010-11-25 07:26:55 51°13.711 2°55.714 0.1 37 1.9 100370 45
2010-11-25 07:26:59 51°13.714 2°55.714 0.1 53 1.9 100370 45
2010-11-25 07:27:04 51°13.718 2°55.713 -999 22 1.9 100370 43
2010-11-25 07:27:09 51°13.722 2°55.712 -999 53 1.9 100370 43
2010-11-25 07:27:14 51°13.727 2°55.71 -999 22 1.9 100360 43
2010-11-25 07:27:19 51°13.732 2°55.708 -999 53 1.9 100360 43
2010-11-25 07:27:24 51°13.737 2°55.704 -999 22 1.9 100360 43
2010-11-25 07:27:29 51°13.744 2°55.7 -999 309 1.9 100360 43
2010-11-25 07:27:34 51°13.751 2°55.695 -999 329 1.9 100360 43
2010-11-25 07:27:39 51°13.758 2°55.69 -999 307 1.9 100360 43
2010-11-25 07:27:44 51°13.766 2°55.684 -999 315 1.9 100360 43
2010-11-25 07:27:49 51°13.775 2°55.677 -999 326 1.9 100360 43
2010-11-25 07:27:55 51°13.785 2°55.669 -999 22 2 100360 42
2010-11-25 07:27:59 51°13.792 2°55.663 -999 307 2 100360 42
2010-11-25 07:28:04 51°13.801 2°55.656 -999 22 2 100360 42
2010-11-25 07:28:10 51°13.813 2°55.647 -999 307 2 100360 42
2010-11-25 07:28:15 51°13.823 2°55.64 -999 22 2 100360 43
2010-11-25 07:28:20 51°13.833 2°55.634 -999 325 2 100360 43
2010-11-25 07:28:25 51°13.843 2°55.626 -999 317 2 100360 43
2010-11-25 07:28:30 51°13.854 2°55.619 -999 306 2 100360 43
2010-11-25 07:28:35 51°13.864 2°55.611 -999 318 2 100360 43
2010-11-25 07:28:39 51°13.873 2°55.606 0.1 325 2 100360 43
2010-11-25 07:28:44 51°13.883 2°55.599 0.1 321 2 100360 44
2010-11-25 07:28:49 51°13.894 2°55.592 0.1 307 2 100360 44
2010-11-25 07:28:54 51°13.905 2°55.584 -999 321 2 100360 43
2010-11-25 07:28:59 51°13.915 2°55.578 -999 307 2 100360 43
2010-11-25 07:29:04 51°13.926 2°55.571 -999 317 2 100370 43
2010-11-25 07:29:09 51°13.935 2°55.564 -999 307 2 100370 43
2010-11-25 07:29:14 51°13.945 2°55.557 -999 317 2 100370 43
2010-11-25 07:29:19 51°13.955 2°55.551 -999 307 2 100370 43
2010-11-25 07:29:24 51°13.965 2°55.544 -999 317 2 100370 43
2010-11-25 07:29:29 51°13.975 2°55.538 -999 307 2 100370 43
2010-11-25 07:29:34 51°13.984 2°55.531 -999 318 2.1 100370 43
2010-11-25 07:29:39 51°13.993 2°55.524 -999 307 2.1 100370 43
2010-11-25 07:29:44 51°14.003 2°55.517 -999 22 2.1 100370 43
2010-11-25 07:29:49 51°14.012 2°55.51 -999 307 2.1 100370 43
2010-11-25 07:29:55 51°14.024 2°55.503 -999 319 2.1 100370 43
2010-11-25 07:29:59 51°14.032 2°55.498 -999 325 2.1 100370 43
2010-11-25 07:30:04 51°14.041 2°55.491 -999 326 2.1 100360 43
2010-11-25 07:30:10 51°14.052 2°55.484 -999 326 2.1 100360 43
2010-11-25 07:30:15 51°14.062 2°55.478 -999 321 2.1 100370 43
2010-11-25 07:30:20 51°14.071 2°55.471 -999 307 2.1 100370 43
2010-11-25 07:30:25 51°14.081 2°55.465 -999 327 2.1 100360 43
2010-11-25 07:30:30 51°14.09 2°55.458 -999 324 2.1 100360 43
2010-11-25 07:30:35 51°14.1 2°55.452 -999 324 2.1 100360 43
2010-11-25 07:30:41 51°14.111 2°55.445 -999 307 2.1 100360 43
2010-11-25 07:30:47 51°14.122 2°55.437 -999 318 2.1 100370 42
2010-11-25 07:30:52 51°14.13 2°55.429 -999 326 2.1 100370 42
2010-11-25 07:30:58 51°14.141 2°55.422 -999 326 2.1 100360 43
2010-11-25 07:31:03 51°14.151 2°55.415 -999 332 2.1 100360 43
2010-11-25 07:31:07 51°14.158 2°55.41 -999 329 2.1 100360 43
2010-11-25 07:31:13 51°14.169 2°55.402 -999 307 2.1 100360 43
2010-11-25 07:31:18 51°14.178 2°55.395 -999 322 2.1 100360 43
2010-11-25 07:31:23 51°14.187 2°55.387 -999 307 2.1 100360 43
2010-11-25 07:31:28 51°14.197 2°55.38 -999 325 2.1 100360 43
2010-11-25 07:31:33 51°14.208 2°55.372 -999 326 2.1 100360 43
2010-11-25 07:31:38 51°14.219 2°55.364 -999 322 2.1 100360 43
2010-11-25 07:31:43 51°14.229 2°55.355 -999 307 2.1 100360 43
2010-11-25 07:31:47 51°14.239 2°55.348 -999 321 2.2 100360 43
2010-11-25 07:31:52 51°14.251 2°55.339 -999 302 2.2 100360 43
2010-11-25 07:31:57 51°14.263 2°55.329 -999 316 2.1 100360 43
2010-11-25 07:32:02 51°14.275 2°55.319 -999 307 2.1 100360 43
2010-11-25 07:32:07 51°14.287 2°55.308 -999 318 2.2 100360 43
2010-11-25 07:32:12 51°14.299 2°55.297 -999 307 2.2 100360 43
2010-11-25 07:32:16 51°14.309 2°55.287 -999 323 2.2 100350 43
2010-11-25 07:32:22 51°14.324 2°55.272 -999 307 2.2 100350 43
2010-11-25 07:32:27 51°14.336 2°55.257 -999 322 2.2 100360 43
2010-11-25 07:32:32 51°14.349 2°55.243 -999 307 2.2 100360 43
2010-11-25 07:32:37 51°14.362 2°55.228 0.1 322 2.2 100350 43
2010-11-25 07:32:42 51°14.374 2°55.212 0.9 302 2.2 100350 43
2010-11-25 07:32:47 51°14.387 2°55.196 1.8 329 2.2 100360 43
2010-11-25 07:32:52 51°14.4 2°55.179 2.6 327 2.2 100360 43
2010-11-25 07:32:58 51°14.416 2°55.16 1.9 320 2.1 100350 43
2010-11-25 07:33:03 51°14.43 2°55.145 0.2 334 2.1 100350 43
2010-11-25 07:33:08 51°14.444 2°55.128 1.1 327 2.1 100350 43
2010-11-25 07:33:13 51°14.457 2°55.112 2.7 327 2.1 100350 43
2010-11-25 07:33:18 51°14.469 2°55.094 2.8 323 2.1 100350 44
2010-11-25 07:33:23 51°14.483 2°55.077 1.1 305 2.1 100350 44
2010-11-25 07:33:27 51°14.494 2°55.064 1.1 322 2.1 100360 44
2010-11-25 07:33:32 51°14.508 2°55.048 1.2 327 2.1 100360 44
2010-11-25 07:33:37 51°14.522 2°55.032 0.5 329 2.2 100360 45
2010-11-25 07:33:42 51°14.537 2°55.016 0.8 327 2.2 100360 45
2010-11-25 07:33:47 51°14.551 2°54.999 2 328 2.2 100350 44
2010-11-25 07:33:51 51°14.563 2°54.985 1.5 329 2.2 100350 44
2010-11-25 07:33:56 51°14.577 2°54.967 0.6 330 2.2 100360 40
2010-11-25 07:34:01 51°14.592 2°54.951 0.7 335 2.2 100360 40
2010-11-25 07:34:06 51°14.607 2°54.933 0.7 325 2.2 100350 42
2010-11-25 07:34:11 51°14.621 2°54.915 2.3 327 2.2 100350 42
2010-11-25 07:34:15 51°14.632 2°54.9 1.1 325 2.2 100350 40
2010-11-25 07:34:20 51°14.647 2°54.883 0.8 329 2.2 100350 40
2010-11-25 07:34:25 51°14.661 2°54.866 0.2 329 2.2 100350 45
2010-11-25 07:34:31 51°14.679 2°54.846 0.1 327 2.2 100350 45
2010-11-25 07:34:35 51°14.691 2°54.832 -999 334 2.2 100350 40
2010-11-25 07:34:40 51°14.706 2°54.816 -999 330 2.2 100350 40
2010-11-25 07:34:45 51°14.721 2°54.799 1.6 334 2.2 100350 43
2010-11-25 07:34:50 51°14.736 2°54.782 0.4 327 2.2 100350 43
2010-11-25 07:34:55 51°14.751 2°54.765 0.6 332 2.2 100350 43
2010-11-25 07:34:59 51°14.763 2°54.752 2.9 331 2.2 100350 43
2010-11-25 07:35:04 51°14.778 2°54.735 1.1 330 2.2 100350 43
2010-11-25 07:35:09 51°14.793 2°54.719 1.4 329 2.2 100350 43
2010-11-25 07:35:15 51°14.811 2°54.701 0.2 330 2.2 100350 44
2010-11-25 07:35:19 51°14.824 2°54.689 0.1 332 2.2 100350 44
2010-11-25 07:35:24 51°14.84 2°54.675 1.2 335 2.2 100360 45
2010-11-25 07:35:29 51°14.856 2°54.662 1.5 338 2.2 100360 45
2010-11-25 07:35:34 51°14.872 2°54.648 1 329 2.3 100360 43
2010-11-25 07:35:39 51°14.888 2°54.635 0.9 332 2.3 100360 43
2010-11-25 07:35:44 51°14.903 2°54.622 0.3 329 2.3 100360 43
2010-11-25 07:35:49 51°14.919 2°54.608 0.6 333 2.3 100360 43
2010-11-25 07:35:55 51°14.938 2°54.592 0.2 329 2.3 100350 44
2010-11-25 07:35:59 51°14.95 2°54.581 0.8 334 2.3 100350 44
2010-11-25 07:36:04 51°14.966 2°54.567 0.7 333 2.3 100360 42
2010-11-25 07:36:09 51°14.981 2°54.554 1.5 334 2.3 100360 42
2010-11-25 07:36:14 51°14.997 2°54.54 1.3 339 2.3 100350 43
2010-11-25 07:36:19 51°15.012 2°54.527 1.3 333 2.3 100350 43
2010-11-25 07:36:24 51°15.027 2°54.514 2.7 326 2.3 100360 41
2010-11-25 07:36:29 51°15.042 2°54.501 0.4 328 2.3 100360 41
2010-11-25 07:36:34 51°15.057 2°54.488 2 331 2.3 100370 43
2010-11-25 07:36:39 51°15.072 2°54.473 2.2 335 2.3 100370 43
2010-11-25 07:36:44 51°15.087 2°54.461 1.9 338 2.3 100360 45
2010-11-25 07:36:49 51°15.101 2°54.447 3.5 341 2.3 100360 45
2010-11-25 07:36:54 51°15.117 2°54.434 1.5 327 2.4 100360 42
2010-11-25 07:36:59 51°15.131 2°54.42 3.7 284 2.4 100360 42
2010-11-25 07:37:04 51°15.146 2°54.407 3.6 342 2.4 100360 46
2010-11-25 07:37:10 51°15.164 2°54.391 0.9 334 2.4 100360 46
2010-11-25 07:37:14 51°15.176 2°54.382 2.9 340 2.4 100380 42
2010-11-25 07:37:19 51°15.192 2°54.37 1.5 338 2.4 100380 42
2010-11-25 07:37:24 51°15.207 2°54.359 2 339 2.5 100370 46
2010-11-25 07:37:29 51°15.222 2°54.345 2 339 2.5 100370 46
2010-11-25 07:37:34 51°15.237 2°54.333 1.9 337 2.5 100360 42
2010-11-25 07:37:39 51°15.252 2°54.321 3.3 340 2.5 100360 42
2010-11-25 07:37:44 51°15.267 2°54.308 4.5 343 2.5 100360 42
2010-11-25 07:37:49 51°15.283 2°54.295 3 340 2.5 100360 42
2010-11-25 07:37:55 51°15.301 2°54.28 5.1 343 2.5 100370 42
2010-11-25 07:37:59 51°15.314 2°54.27 3.6 284 2.5 100370 42
2010-11-25 07:38:04 51°15.33 2°54.258 4.3 343 2.6 100360 46
2010-11-25 07:38:10 51°15.349 2°54.243 1.6 347 2.6 100360 46
2010-11-25 07:38:14 51°15.362 2°54.233 1.6 344 2.5 100360 44
2010-11-25 07:38:19 51°15.378 2°54.222 2.7 343 2.5 100360 44
2010-11-25 07:38:24 51°15.394 2°54.209 1.8 341 2.6 100350 41
2010-11-25 07:38:29 51°15.41 2°54.197 2.5 340 2.6 100350 41
2010-11-25 07:38:34 51°15.426 2°54.185 2.3 342 2.6 100350 41
2010-11-25 07:38:39 51°15.442 2°54.172 0.5 334 2.6 100350 41
2010-11-25 07:38:44 51°15.458 2°54.159 0.2 335 2.6 100370 40
2010-11-25 07:38:49 51°15.474 2°54.147 2.3 327 2.6 100370 40
2010-11-25 07:38:54 51°15.489 2°54.133 1.6 327 2.5 100360 45
2010-11-25 07:38:59 51°15.504 2°54.12 2.1 278 2.5 100360 45
2010-11-25 07:39:04 51°15.519 2°54.108 1 327 2.5 100350 40
2010-11-25 07:39:09 51°15.535 2°54.095 1 307 2.5 100350 40
2010-11-25 07:39:15 51°15.553 2°54.08 0.9 323 2.5 100350 41
2010-11-25 07:39:19 51°15.566 2°54.069 0.2 305 2.5 100350 41
2010-11-25 07:39:24 51°15.581 2°54.053 0.1 323 2.5 100350 42
2010-11-25 07:39:29 51°15.596 2°54.038 0.1 311 2.5 100350 42
2010-11-25 07:39:34 51°15.61 2°54.02 0.2 18 2.5 100350 42
2010-11-25 07:39:39 51°15.624 2°54.003 0.1 306 2.5 100350 42
2010-11-25 07:39:44 51°15.637 2°53.983 0.1 324 2.5 100340 43
2010-11-25 07:39:49 51°15.65 2°53.962 0.1 307 2.5 100340 43
2010-11-25 07:39:55 51°15.664 2°53.937 0.1 318 2.4 100330 43
2010-11-25 07:39:59 51°15.674 2°53.919 -999 283 2.4 100330 43
2010-11-25 07:40:04 51°15.685 2°53.897 -999 332 2.4 100330 43
2010-11-25 07:40:09 51°15.697 2°53.875 -999 330 2.4 100330 43
2010-11-25 07:40:14 51°15.71 2°53.853 -999 339 2.4 100330 43
2010-11-25 07:40:19 51°15.722 2°53.833 -999 348 2.4 100330 43
2010-11-25 07:40:24 51°15.735 2°53.812 0.1 345 2.4 100330 43
2010-11-25 07:40:29 51°15.749 2°53.792 0.1 343 2.4 100330 43
2010-11-25 07:40:34 51°15.762 2°53.772 0.2 349 2.4 100350 43
2010-11-25 07:40:39 51°15.775 2°53.752 0.1 353 2.4 100350 43
2010-11-25 07:40:44 51°15.789 2°53.732 0.1 349 2.4 100330 43
2010-11-25 07:40:50 51°15.806 2°53.709 0.1 351 2.4 100330 43
2010-11-25 07:40:54 51°15.818 2°53.693 0.1 341 2.5 100350 43
2010-11-25 07:40:59 51°15.831 2°53.674 0.1 283 2.5 100350 43
2010-11-25 07:41:04 51°15.845 2°53.653 0.5 344 2.5 100350 42
2010-11-25 07:41:09 51°15.858 2°53.632 0.2 332 2.5 100350 42
2010-11-25 07:41:14 51°15.87 2°53.609 0.1 336 2.5 100350 43
2010-11-25 07:41:19 51°15.881 2°53.585 1.6 334 2.5 100350 43
2010-11-25 07:41:24 51°15.893 2°53.562 1.3 333 2.5 100360 41
2010-11-25 07:41:30 51°15.906 2°53.532 0.2 307 2.5 100360 41
2010-11-25 07:41:35 51°15.916 2°53.507 0.5 322 2.5 100350 42
2010-11-25 07:41:39 51°15.924 2°53.486 0.2 328 2.5 100350 42
2010-11-25 07:41:44 51°15.933 2°53.46 2.1 330 2.5 100340 43
2010-11-25 07:41:49 51°15.944 2°53.437 0.3 337 2.5 100340 43
2010-11-25 07:41:54 51°15.955 2°53.414 0.1 336 2.5 100340 42
2010-11-25 07:41:59 51°15.968 2°53.393 0.1 283 2.5 100340 42
2010-11-25 07:42:04 51°15.98 2°53.372 0.3 351 2.5 100350 43
2010-11-25 07:42:09 51°15.993 2°53.352 1.7 349 2.5 100350 43
2010-11-25 07:42:14 51°16.008 2°53.334 1.3 6 2.5 100330 43
2010-11-25 07:42:19 51°16.022 2°53.319 0.8 349 2.5 100330 43
2010-11-25 07:42:24 51°16.036 2°53.301 0.2 353 2.5 100350 39
2010-11-25 07:42:29 51°16.049 2°53.282 0.4 345 2.5 100350 39
2010-11-25 07:42:34 51°16.063 2°53.265 0.6 347 2.5 100350 43
2010-11-25 07:42:39 51°16.078 2°53.249 0.8 348 2.5 100350 43
2010-11-25 07:42:44 51°16.092 2°53.234 1 349 2.5 100350 43
2010-11-25 07:42:49 51°16.107 2°53.218 1 349 2.5 100350 43
2010-11-25 07:42:54 51°16.122 2°53.202 1.2 349 2.5 100340 41
2010-11-25 07:42:59 51°16.137 2°53.188 0.5 346 2.5 100340 41
2010-11-25 07:43:04 51°16.152 2°53.172 0.3 347 2.6 100340 40
2010-11-25 07:43:09 51°16.168 2°53.158 3.9 330 2.6 100340 40
2010-11-25 07:43:14 51°16.183 2°53.143 4.5 329 2.6 100340 46
2010-11-25 07:43:19 51°16.199 2°53.129 3.7 335 2.6 100340 46
2010-11-25 07:43:24 51°16.214 2°53.114 2.7 325 2.6 100340 42
2010-11-25 07:43:30 51°16.233 2°53.098 1.4 335 2.6 100340 42
2010-11-25 07:43:35 51°16.249 2°53.083 0.2 335 2.6 100350 41
2010-11-25 07:43:39 51°16.261 2°53.073 0.1 307 2.6 100350 41
2010-11-25 07:43:44 51°16.277 2°53.058 -999 332 2.7 100330 42
2010-11-25 07:43:49 51°16.293 2°53.044 -999 307 2.7 100330 42
2010-11-25 07:43:54 51°16.308 2°53.03 -999 4 2.7 100340 43
2010-11-25 07:43:59 51°16.323 2°53.016 -999 6 2.7 100340 43
2010-11-25 07:44:04 51°16.338 2°53.003 -999 349 2.7 100340 42
2010-11-25 07:44:09 51°16.353 2°52.988 -999 358 2.7 100340 42
2010-11-25 07:44:14 51°16.368 2°52.975 -999 -999 2.7 100330 43
2010-11-25 07:44:19 51°16.382 2°52.961 -999 336 2.7 100330 43
2010-11-25 07:44:24 51°16.397 2°52.947 -999 333 2.7 100350 43
2010-11-25 07:44:30 51°16.415 2°52.931 -999 332 2.7 100350 43
2010-11-25 07:44:35 51°16.43 2°52.919 -999 15 2.7 100320 43
2010-11-25 07:44:40 51°16.445 2°52.904 -999 341 2.7 100320 43
2010-11-25 07:44:44 51°16.457 2°52.893 -999 358 2.7 100340 43
2010-11-25 07:44:50 51°16.476 2°52.875 -999 344 2.7 100340 43
2010-11-25 07:44:55 51°16.491 2°52.862 -999 339 2.7 100340 43
2010-11-25 07:44:59 51°16.503 2°52.85 -999 283 2.7 100340 43
2010-11-25 07:45:04 51°16.519 2°52.836 0.1 353 2.7 100340 43
2010-11-25 07:45:09 51°16.534 2°52.821 0.1 346 2.7 100340 43
2010-11-25 07:45:14 51°16.55 2°52.808 0.1 356 2.7 100340 43
2010-11-25 07:45:19 51°16.565 2°52.792 -999 348 2.7 100340 43
2010-11-25 07:45:24 51°16.581 2°52.78 -999 1 2.7 100340 42
2010-11-25 07:45:29 51°16.596 2°52.767 -999 348 2.7 100340 42
2010-11-25 07:45:34 51°16.612 2°52.755 -999 356 2.7 100330 43
2010-11-25 07:45:39 51°16.629 2°52.744 0.1 344 2.7 100330 43
2010-11-25 07:45:44 51°16.645 2°52.732 0.1 342 2.8 100350 43
2010-11-25 07:45:49 51°16.662 2°52.722 -999 348 2.8 100350 43
2010-11-25 07:45:54 51°16.678 2°52.712 -999 357 2.8 100350 43
2010-11-25 07:45:59 51°16.695 2°52.703 -999 349 2.8 100350 43
2010-11-25 07:46:04 51°16.711 2°52.694 0.3 354 2.8 100350 43
2010-11-25 07:46:10 51°16.731 2°52.685 0.1 1 2.8 100350 43
2010-11-25 07:46:14 51°16.744 2°52.677 0.1 351 2.8 100350 43
2010-11-25 07:46:19 51°16.76 2°52.669 0.2 359 2.8 100350 43
2010-11-25 07:46:24 51°16.777 2°52.661 0.3 1 2.8 100350 43
2010-11-25 07:46:29 51°16.793 2°52.653 0.6 353 2.8 100350 43
2010-11-25 07:46:35 51°16.813 2°52.643 0.4 349 2.7 100340 40
2010-11-25 07:46:39 51°16.826 2°52.637 0.1 353 2.7 100340 40
2010-11-25 07:46:44 51°16.843 2°52.628 0.1 348 2.8 100360 41
2010-11-25 07:46:50 51°16.862 2°52.618 0.1 348 2.8 100360 41
2010-11-25 07:46:54 51°16.876 2°52.611 0.5 353 2.8 100340 42
2010-11-25 07:46:59 51°16.893 2°52.603 0.2 283 2.8 100340 42
2010-11-25 07:47:04 51°16.909 2°52.594 0.8 349 2.8 100340 43
2010-11-25 07:47:09 51°16.926 2°52.586 0.3 343 2.8 100340 43
2010-11-25 07:47:14 51°16.942 2°52.577 0.3 340 2.8 100340 42
2010-11-25 07:47:19 51°16.959 2°52.569 2.5 340 2.8 100340 42
2010-11-25 07:47:24 51°16.976 2°52.56 1.3 338 2.8 100350 45
2010-11-25 07:47:29 51°16.992 2°52.551 1.1 340 2.8 100350 45
2010-11-25 07:47:35 51°17.012 2°52.541 0.3 336 2.8 100360 43
2010-11-25 07:47:39 51°17.025 2°52.534 0.3 334 2.8 100360 43
2010-11-25 07:47:44 51°17.042 2°52.525 0.1 335 2.8 100350 43
2010-11-25 07:47:50 51°17.062 2°52.515 2.1 334 2.8 100350 43
2010-11-25 07:47:55 51°17.079 2°52.506 1 331 2.8 100350 42
2010-11-25 07:47:59 51°17.092 2°52.499 0.2 282 2.8 100350 42
2010-11-25 07:48:04 51°17.108 2°52.491 0.2 339 2.8 100340 42
2010-11-25 07:48:09 51°17.124 2°52.482 0.3 337 2.8 100340 42
2010-11-25 07:48:15 51°17.144 2°52.472 0.4 339 2.8 100350 43
2010-11-25 07:48:19 51°17.157 2°52.465 1.1 334 2.8 100350 43
2010-11-25 07:48:24 51°17.173 2°52.456 0.4 339 2.8 100360 42
2010-11-25 07:48:30 51°17.192 2°52.446 2.2 336 2.8 100360 42
2010-11-25 07:48:34 51°17.205 2°52.439 1.2 331 2.8 100340 42
2010-11-25 07:48:39 51°17.221 2°52.43 1 335 2.8 100340 42
2010-11-25 07:48:44 51°17.238 2°52.421 0.2 331 2.8 100350 41
2010-11-25 07:48:49 51°17.254 2°52.412 0.1 330 2.8 100350 41
2010-11-25 07:48:55 51°17.274 2°52.402 0.1 330 2.8 100360 45
2010-11-25 07:48:59 51°17.287 2°52.395 0.1 327 2.8 100360 45
2010-11-25 07:49:04 51°17.304 2°52.386 0.1 333 2.8 100350 42
2010-11-25 07:49:10 51°17.324 2°52.375 1.9 342 2.8 100350 42
2010-11-25 07:49:14 51°17.337 2°52.367 1 338 2.8 100350 42
2010-11-25 07:49:19 51°17.353 2°52.359 1.2 331 2.8 100350 42
2010-11-25 07:49:24 51°17.37 2°52.352 0.9 333 2.8 100350 41
2010-11-25 07:49:29 51°17.386 2°52.346 2.4 329 2.8 100350 41
2010-11-25 07:49:34 51°17.403 2°52.341 2.6 335 2.9 100350 40
2010-11-25 07:49:39 51°17.42 2°52.337 3.5 338 2.9 100350 40
2010-11-25 07:49:44 51°17.437 2°52.333 3.4 337 2.9 100350 41
2010-11-25 07:49:49 51°17.454 2°52.331 1.1 342 2.9 100350 41
2010-11-25 07:49:55 51°17.473 2°52.328 1.7 339 2.9 100360 41
2010-11-25 07:49:59 51°17.487 2°52.326 4.3 335 2.9 100360 41
2010-11-25 07:50:03 51°17.5 2°52.324 3.6 334 2.9 100350 40
2010-11-25 07:50:09 51°17.521 2°52.322 3.3 330 2.9 100350 40
2010-11-25 07:50:14 51°17.538 2°52.321 3.3 324 2.9 100350 41
2010-11-25 07:50:19 51°17.554 2°52.32 3.8 323 2.9 100350 41
2010-11-25 07:50:23 51°17.568 2°52.319 4.4 320 2.9 100360 44
2010-11-25 07:50:30 51°17.59 2°52.319 3.5 304 2.9 100360 44
2010-11-25 07:50:35 51°17.606 2°52.318 3.2 25 2.9 100360 41
2010-11-25 07:50:40 51°17.621 2°52.316 5.3 309 2.9 100360 41
2010-11-25 07:50:45 51°17.637 2°52.316 4.1 316 2.9 100350 41
2010-11-25 07:50:50 51°17.652 2°52.313 3.2 304 2.9 100350 41
2010-11-25 07:50:55 51°17.669 2°52.312 3 322 2.9 100360 44
2010-11-25 07:51:00 51°17.685 2°52.31 2.3 327 2.9 100360 44
2010-11-25 07:51:04 51°17.697 2°52.31 2.6 330 3 100350 41
2010-11-25 07:51:09 51°17.713 2°52.309 3.9 323 3 100350 41
2010-11-25 07:51:15 51°17.733 2°52.307 2.7 327 3 100340 43
2010-11-25 07:51:19 51°17.746 2°52.306 6.5 306 3 100340 43
2010-11-25 07:51:24 51°17.76 2°52.304 6.4 323 3 100340 41
2010-11-25 07:51:29 51°17.774 2°52.303 5.9 305 3 100340 41
2010-11-25 07:51:35 51°17.789 2°52.302 5.8 21 3 100350 44
2010-11-25 07:51:39 51°17.799 2°52.301 5.1 304 3 100350 44
2010-11-25 07:51:44 51°17.81 2°52.3 5.3 21 3 100360 43
2010-11-25 07:51:50 51°17.822 2°52.298 3.3 304 3 100360 43
2010-11-25 07:51:55 51°17.832 2°52.298 6.8 21 3 100360 44
2010-11-25 07:51:59 51°17.839 2°52.297 5.3 310 3 100360 44
2010-11-25 07:52:04 51°17.847 2°52.296 6 250 3.1 100360 42
2010-11-25 07:52:09 51°17.855 2°52.295 6.3 307 3.1 100360 42
2010-11-25 07:52:15 51°17.863 2°52.293 5.9 20 3.1 100350 44
2010-11-25 07:52:19 51°17.868 2°52.292 8.2 304 3.1 100350 44
2010-11-25 07:52:23 51°17.874 2°52.29 6.7 24 3.1 100340 43
2010-11-25 07:52:29 51°17.881 2°52.288 6.2 311 3.1 100340 43
2010-11-25 07:52:35 51°17.889 2°52.287 6.2 21 3.1 100350 44
2010-11-25 07:52:39 51°17.893 2°52.285 5.2 310 3.1 100350 44
2010-11-25 07:52:43 51°17.898 2°52.284 5.3 23 3.1 100360 41
2010-11-25 07:52:49 51°17.907 2°52.281 7.6 306 3.1 100360 41
2010-11-25 07:52:54 51°17.914 2°52.28 6 22 3.1 100360 44
2010-11-25 07:52:59 51°17.923 2°52.278 6.1 305 3.1 100360 44
2010-11-25 07:53:04 51°17.931 2°52.276 5.8 22 3.1 100360 44
2010-11-25 07:53:09 51°17.94 2°52.274 5 304 3.1 100360 44
2010-11-25 07:53:15 51°17.951 2°52.272 5.7 21 3.1 100340 44
2010-11-25 07:53:19 51°17.959 2°52.27 6.1 309 3.1 100340 44
2010-11-25 07:53:24 51°17.969 2°52.268 4.7 21 3.1 100340 41
2010-11-25 07:53:30 51°17.981 2°52.265 5.6 304 3.1 100340 41
2010-11-25 07:53:34 51°17.989 2°52.264 2.2 22 3.1 100350 41
2010-11-25 07:53:39 51°17.999 2°52.263 7.7 307 3.1 100350 41
2010-11-25 07:53:44 51°18.009 2°52.262 5.7 20 3.1 100340 44
2010-11-25 07:53:49 51°18.019 2°52.261 4 328 3.1 100340 44
2010-11-25 07:53:54 51°18.028 2°52.259 5.4 334 3.2 100340 41
2010-11-25 07:53:59 51°18.039 2°52.257 7.6 324 3.2 100340 41
2010-11-25 07:54:03 51°18.047 2°52.256 7.3 324 3.2 100360 45
2010-11-25 07:54:09 51°18.059 2°52.254 7.8 306 3.2 100360 45
2010-11-25 07:54:14 51°18.069 2°52.252 13.3 319 3.2 100340 42
2010-11-25 07:54:19 51°18.08 2°52.251 14.5 305 3.2 100340 42
2010-11-25 07:54:24 51°18.09 2°52.25 10.6 319 3.2 100350 43
2010-11-25 07:54:29 51°18.1 2°52.248 13 307 3.2 100350 43
2010-11-25 07:54:35 51°18.112 2°52.246 11.7 318 3.3 100340 43
2010-11-25 07:54:39 51°18.12 2°52.245 8.5 324 3.3 100340 43
2010-11-25 07:54:43 51°18.127 2°52.244 9.2 323 3.4 100320 42
2010-11-25 07:54:50 51°18.14 2°52.241 9.4 329 3.4 100320 42
2010-11-25 07:54:54 51°18.148 2°52.24 10.3 328 3.5 100310 43
2010-11-25 07:54:59 51°18.158 2°52.237 10.1 282 3.5 100310 43
2010-11-25 07:55:03 51°18.166 2°52.236 9.2 323 3.6 100310 42
2010-11-25 07:55:09 51°18.179 2°52.233 10.3 327 3.6 100310 42
2010-11-25 07:55:14 51°18.189 2°52.232 11.5 327 3.7 100320 44
2010-11-25 07:55:19 51°18.199 2°52.231 8.5 329 3.7 100320 44
2010-11-25 07:55:24 51°18.209 2°52.229 9.6 324 3.8 100330 43
2010-11-25 07:55:29 51°18.219 2°52.227 9.5 326 3.8 100330 43
2010-11-25 07:55:35 51°18.23 2°52.226 14.5 323 3.9 100330 44
2010-11-25 07:55:39 51°18.238 2°52.224 11.7 324 3.9 100330 44
2010-11-25 07:55:43 51°18.245 2°52.222 10.1 323 4 100320 42
2010-11-25 07:55:49 51°18.257 2°52.22 10.6 305 4 100320 42
2010-11-25 07:55:55 51°18.268 2°52.218 8.6 320 4 100330 44
2010-11-25 07:55:59 51°18.276 2°52.217 9.6 303 4 100330 44
2010-11-25 07:56:03 51°18.283 2°52.216 11 326 4.1 100320 44
2010-11-25 07:56:09 51°18.294 2°52.215 12.7 327 4.1 100320 44
2010-11-25 07:56:14 51°18.303 2°52.214 10.3 329 4.1 100310 42
2010-11-25 07:56:19 51°18.312 2°52.214 11.8 326 4.1 100310 42
2010-11-25 07:56:23 51°18.318 2°52.214 10.5 327 4.2 100320 42
2010-11-25 07:56:29 51°18.328 2°52.213 7.4 303 4.2 100320 42
2010-11-25 07:56:34 51°18.337 2°52.213 10.5 324 4.3 100320 42
2010-11-25 07:56:39 51°18.345 2°52.212 9.6 322 4.3 100320 42
2010-11-25 07:56:44 51°18.353 2°52.213 7.8 321 4.3 100310 43
2010-11-25 07:56:50 51°18.363 2°52.213 9.9 308 4.3 100310 43
2010-11-25 07:56:55 51°18.371 2°52.212 12.6 315 4.3 100330 41
2010-11-25 07:56:59 51°18.377 2°52.213 7.9 283 4.3 100330 41
2010-11-25 07:57:04 51°18.384 2°52.212 9.1 317 4.3 100320 41
2010-11-25 07:57:10 51°18.393 2°52.212 13.3 305 4.3 100320 41
2010-11-25 07:57:15 51°18.402 2°52.212 10.8 315 4.3 100320 41
2010-11-25 07:57:19 51°18.408 2°52.212 12.1 308 4.3 100320 41
2010-11-25 07:57:23 51°18.414 2°52.212 8.8 320 4.4 100290 42
2010-11-25 07:57:30 51°18.425 2°52.212 9 304 4.4 100290 42
2010-11-25 07:57:34 51°18.432 2°52.213 11.7 318 4.4 100310 41
2010-11-25 07:57:39 51°18.439 2°52.213 11.3 304 4.4 100310 41
2010-11-25 07:57:43 51°18.446 2°52.213 10.6 317 4.5 100290 43
2010-11-25 07:57:49 51°18.456 2°52.212 13.3 308 4.5 100290 43
2010-11-25 07:57:55 51°18.466 2°52.212 13 324 4.6 100290 40
2010-11-25 07:57:59 51°18.472 2°52.212 9.5 325 4.6 100290 40
2010-11-25 07:58:04 51°18.48 2°52.212 12.5 324 4.6 100300 42
2010-11-25 07:58:09 51°18.489 2°52.21 12.7 322 4.6 100300 42
2010-11-25 07:58:14 51°18.498 2°52.21 11.8 323 4.7 100280 42
2010-11-25 07:58:19 51°18.508 2°52.209 13.3 325 4.7 100280 42
2010-11-25 07:58:24 51°18.517 2°52.209 12.6 325 4.8 100300 40
2010-11-25 07:58:29 51°18.527 2°52.209 12.7 329 4.8 100300 40
2010-11-25 07:58:35 51°18.539 2°52.209 6.9 332 4.9 100300 41
2010-11-25 07:58:39 51°18.546 2°52.209 15.7 327 4.9 100300 41
2010-11-25 07:58:44 51°18.556 2°52.209 14.3 324 4.9 100300 41
2010-11-25 07:58:49 51°18.565 2°52.208 11.3 328 4.9 100300 41
2010-11-25 07:58:54 51°18.575 2°52.209 11.1 328 5 100300 41
2010-11-25 07:58:59 51°18.584 2°52.209 14.9 283 5 100300 41
2010-11-25 07:59:04 51°18.593 2°52.209 10.5 329 5 100320 41
2010-11-25 07:59:09 51°18.602 2°52.208 13.1 325 5 100320 41
2010-11-25 07:59:15 51°18.614 2°52.208 14.6 325 5 100320 41
2010-11-25 07:59:19 51°18.621 2°52.208 11.2 326 5 100320 41
2010-11-25 07:59:24 51°18.631 2°52.208 10 326 5.1 100320 39
2010-11-25 07:59:29 51°18.64 2°52.208 10.6 329 5.1 100320 39
2010-11-25 07:59:34 51°18.648 2°52.208 10.2 327 5.1 100310 40
2010-11-25 07:59:39 51°18.658 2°52.207 10.9 328 5.1 100310 40
2010-11-25 07:59:43 51°18.665 2°52.207 9.5 329 5.2 100300 40
2010-11-25 07:59:49 51°18.676 2°52.206 13.6 327 5.2 100300 40
2010-11-25 07:59:54 51°18.685 2°52.206 12.8 330 5.2 100290 39
2010-11-25 07:59:59 51°18.694 2°52.206 10.9 327 5.2 100290 39
2010-11-25 08:00:04 51°18.704 2°52.205 13.4 327 5.3 100310 38
2010-11-25 08:00:09 51°18.714 2°52.204 12.9 324 5.3 100310 38
2010-11-25 08:00:15 51°18.725 2°52.203 12.4 324 5.3 100320 39
2010-11-25 08:00:19 51°18.733 2°52.203 10.5 325 5.3 100320 39
2010-11-25 08:00:23 51°18.741 2°52.203 9.1 323 5.4 100320 38
2010-11-25 08:00:29 51°18.753 2°52.202 12.4 307 5.4 100320 38
2010-11-25 08:00:34 51°18.764 2°52.2 12.3 325 5.4 100310 39
2010-11-25 08:00:39 51°18.773 2°52.2 13.6 305 5.4 100310 39
2010-11-25 08:00:44 51°18.783 2°52.199 10.5 324 5.5 100310 39
2010-11-25 08:00:49 51°18.792 2°52.199 12.1 303 5.5 100310 39
2010-11-25 08:00:55 51°18.801 2°52.201 12 324 5.5 100300 39
2010-11-25 08:00:59 51°18.807 2°52.201 13.2 286 5.5 100300 39
2010-11-25 08:01:04 51°18.815 2°52.201 15.4 324 5.5 100300 39
2010-11-25 08:01:09 51°18.823 2°52.2 12.2 310 5.5 100300 39
2010-11-25 08:01:15 51°18.833 2°52.199 9.9 323 5.5 100310 39
2010-11-25 08:01:19 51°18.84 2°52.199 10.3 307 5.5 100310 39
2010-11-25 08:01:23 51°18.847 2°52.198 12 323 5.6 100310 39
2010-11-25 08:01:29 51°18.858 2°52.197 13.3 323 5.6 100310 39
2010-11-25 08:01:34 51°18.867 2°52.196 10.7 323 5.6 100310 38
2010-11-25 08:01:39 51°18.875 2°52.195 13.5 304 5.6 100310 38
2010-11-25 08:01:44 51°18.884 2°52.194 12.4 324 5.7 100310 39
2010-11-25 08:01:49 51°18.893 2°52.194 11.8 325 5.7 100310 39
2010-11-25 08:01:55 51°18.903 2°52.192 9.4 321 5.7 100310 38
2010-11-25 08:01:59 51°18.91 2°52.192 10.9 307 5.7 100310 38
2010-11-25 08:02:04 51°18.919 2°52.192 10.7 317 5.7 100300 39
2010-11-25 08:02:09 51°18.926 2°52.192 10 309 5.7 100300 39
2010-11-25 08:02:15 51°18.936 2°52.191 13.7 316 5.8 100310 39
2010-11-25 08:02:19 51°18.941 2°52.192 12.9 309 5.8 100310 39
2010-11-25 08:02:24 51°18.948 2°52.192 10.3 23 5.8 100320 40
2010-11-25 08:02:29 51°18.955 2°52.193 12.8 307 5.8 100320 40
2010-11-25 08:02:34 51°18.962 2°52.192 12.5 317 5.8 100290 39
2010-11-25 08:02:39 51°18.97 2°52.192 12 307 5.8 100290 39
2010-11-25 08:02:44 51°18.977 2°52.191 9.4 318 5.9 100290 39
2010-11-25 08:02:49 51°18.985 2°52.191 13.5 306 5.9 100290 39
2010-11-25 08:02:55 51°18.995 2°52.191 14.9 315 5.9 100290 39
2010-11-25 08:02:59 51°19.001 2°52.19 11.7 281 5.9 100290 39
2010-11-25 08:03:04 51°19.009 2°52.19 13 316 5.9 100290 38
2010-11-25 08:03:09 51°19.017 2°52.189 15.2 304 5.9 100290 38
2010-11-25 08:03:15 51°19.027 2°52.188 9.9 315 5.9 100300 37
2010-11-25 08:03:19 51°19.034 2°52.187 12.7 311 5.9 100300 37
2010-11-25 08:03:23 51°19.041 2°52.187 13.9 316 5.9 100290 39
2010-11-25 08:03:29 51°19.051 2°52.186 11.8 304 5.9 100290 39
2010-11-25 08:03:35 51°19.062 2°52.185 13.1 23 5.9 100280 38
2010-11-25 08:03:39 51°19.069 2°52.185 14 304 5.9 100280 38
2010-11-25 08:03:43 51°19.077 2°52.184 12.6 316 5.9 100290 37
2010-11-25 08:03:50 51°19.09 2°52.184 14.4 307 5.9 100290 37
2010-11-25 08:03:54 51°19.097 2°52.183 14 316 5.9 100290 37
2010-11-25 08:03:59 51°19.106 2°52.183 13 307 5.9 100290 37
2010-11-25 08:04:04 51°19.115 2°52.184 13.4 317 5.9 100290 38
2010-11-25 08:04:09 51°19.124 2°52.184 10.9 304 5.9 100290 38
2010-11-25 08:04:15 51°19.133 2°52.183 12.1 318 5.9 100290 37
2010-11-25 08:04:19 51°19.14 2°52.182 13.6 308 5.9 100290 37
2010-11-25 08:04:24 51°19.148 2°52.182 13.1 316 5.9 100300 39
2010-11-25 08:04:29 51°19.156 2°52.181 13 308 5.9 100300 39
2010-11-25 08:04:35 51°19.167 2°52.179 11.4 317 5.9 100280 37
2010-11-25 08:04:39 51°19.174 2°52.179 13.9 305 5.9 100280 37
2010-11-25 08:04:43 51°19.182 2°52.178 13.6 316 5.9 100300 38
2010-11-25 08:04:49 51°19.192 2°52.178 11.4 306 5.9 100300 38
2010-11-25 08:04:55 51°19.203 2°52.176 9.7 20 5.9 100280 38
2010-11-25 08:04:59 51°19.21 2°52.176 10.3 282 5.9 100280 38
2010-11-25 08:05:03 51°19.218 2°52.175 11.8 317 5.9 100290 38
2010-11-25 08:05:09 51°19.229 2°52.174 13.9 306 5.9 100290 38
2010-11-25 08:05:14 51°19.238 2°52.173 12.9 316 5.9 100290 38
2010-11-25 08:05:19 51°19.248 2°52.172 12.9 308 5.9 100290 38
2010-11-25 08:05:24 51°19.257 2°52.171 13 23 6 100290 38
2010-11-25 08:05:29 51°19.266 2°52.17 13.4 306 6 100290 38
2010-11-25 08:05:35 51°19.277 2°52.169 11.1 24 6 100290 39
2010-11-25 08:05:39 51°19.284 2°52.168 13.2 307 6 100290 39
2010-11-25 08:05:44 51°19.293 2°52.167 12.6 25 6 100280 37
2010-11-25 08:05:49 51°19.301 2°52.166 12.1 307 6 100280 37
2010-11-25 08:05:55 51°19.312 2°52.164 12.8 316 6 100290 37
2010-11-25 08:05:59 51°19.32 2°52.164 15 305 6 100290 37
2010-11-25 08:06:03 51°19.327 2°52.163 14.1 23 6 100290 37
2010-11-25 08:06:10 51°19.339 2°52.161 17.5 306 6 100290 37
2010-11-25 08:06:14 51°19.346 2°52.16 13.1 23 6 100290 37
2010-11-25 08:06:19 51°19.355 2°52.159 17.6 310 6 100290 37
2010-11-25 08:06:24 51°19.364 2°52.158 12.5 23 6 100280 38
2010-11-25 08:06:29 51°19.372 2°52.157 16 308 6 100280 38
2010-11-25 08:06:35 51°19.383 2°52.156 13.2 20 6 100280 38
2010-11-25 08:06:39 51°19.389 2°52.155 13.4 308 6 100280 38
2010-11-25 08:06:44 51°19.398 2°52.153 16.9 22 6 100280 37
2010-11-25 08:06:49 51°19.407 2°52.152 14.2 307 6 100280 37
2010-11-25 08:06:54 51°19.416 2°52.151 12.1 316 6 100300 37
2010-11-25 08:06:59 51°19.425 2°52.149 9.7 283 6 100300 37
2010-11-25 08:07:04 51°19.435 2°52.148 11.4 22 6 100290 38
2010-11-25 08:07:09 51°19.444 2°52.146 14.2 307 6 100290 38
2010-11-25 08:07:15 51°19.455 2°52.145 12.4 317 6 100280 37
2010-11-25 08:07:19 51°19.462 2°52.144 13.1 302 6 100280 37
2010-11-25 08:07:24 51°19.472 2°52.143 12.1 22 6.1 100280 38
2010-11-25 08:07:29 51°19.481 2°52.142 13.2 310 6.1 100280 38
2010-11-25 08:07:35 51°19.491 2°52.142 14.4 20 6 100280 37
2010-11-25 08:07:39 51°19.497 2°52.142 11.8 303 6 100280 37
2010-11-25 08:07:43 51°19.503 2°52.141 15.3 24 6.1 100290 38
2010-11-25 08:07:49 51°19.513 2°52.139 11.1 306 6.1 100290 38
2010-11-25 08:07:55 51°19.523 2°52.137 12.4 24 6 100290 37
2010-11-25 08:07:59 51°19.53 2°52.135 11.7 304 6 100290 37
2010-11-25 08:08:03 51°19.537 2°52.134 10.8 27 6 100280 37
2010-11-25 08:08:10 51°19.549 2°52.132 12.2 306 6 100280 37
2010-11-25 08:08:14 51°19.555 2°52.131 15 24 6 100270 36
2010-11-25 08:08:19 51°19.564 2°52.13 11.2 309 6 100270 36
2010-11-25 08:08:24 51°19.572 2°52.129 13.7 316 6 100280 37
2010-11-25 08:08:29 51°19.579 2°52.129 16.9 310 6 100280 37
2010-11-25 08:08:35 51°19.589 2°52.127 13.8 22 6.1 100290 36
2010-11-25 08:08:39 51°19.596 2°52.126 17.2 310 6.1 100290 36
2010-11-25 08:08:44 51°19.604 2°52.124 14 19 6.1 100280 37
2010-11-25 08:08:49 51°19.611 2°52.124 12.1 306 6.1 100280 37
2010-11-25 08:08:55 51°19.619 2°52.124 13.3 22 6.1 100300 38
2010-11-25 08:09:00 51°19.625 2°52.122 12.2 282 6.1 100300 38
2010-11-25 08:09:05 51°19.631 2°52.121 12 25 6.1 100280 37
2010-11-25 08:09:10 51°19.638 2°52.119 11.2 306 6.1 100280 37
2010-11-25 08:09:15 51°19.645 2°52.117 12.5 24 6.2 100290 37
2010-11-25 08:09:19 51°19.651 2°52.115 14.9 310 6.2 100290 37
2010-11-25 08:09:24 51°19.659 2°52.113 14.2 19 6.2 100290 38
2010-11-25 08:09:29 51°19.667 2°52.112 12.2 306 6.2 100290 38
2010-11-25 08:09:34 51°19.675 2°52.11 12.3 22 6.1 100290 38
2010-11-25 08:09:39 51°19.683 2°52.108 11.5 304 6.1 100290 38
2010-11-25 08:09:44 51°19.691 2°52.106 14.2 317 6.1 100270 38
2010-11-25 08:09:49 51°19.7 2°52.104 10.8 305 6.1 100270 38
2010-11-25 08:09:55 51°19.71 2°52.103 14 315 6.1 100270 37
2010-11-25 08:09:59 51°19.717 2°52.103 13.6 302 6.1 100270 37
2010-11-25 08:10:04 51°19.725 2°52.101 13.1 315 6.1 100270 38
2010-11-25 08:10:09 51°19.734 2°52.1 16.4 309 6.1 100270 38
2010-11-25 08:10:15 51°19.744 2°52.098 12.2 317 6.1 100280 37
2010-11-25 08:10:19 51°19.751 2°52.098 10.9 303 6.1 100280 37
2010-11-25 08:10:23 51°19.758 2°52.097 13.2 315 6.1 100270 37
2010-11-25 08:10:29 51°19.768 2°52.096 13.3 307 6.1 100270 37
2010-11-25 08:10:34 51°19.777 2°52.095 10.7 318 6.1 100290 37
2010-11-25 08:10:39 51°19.786 2°52.094 15.4 303 6.1 100290 37
2010-11-25 08:10:44 51°19.795 2°52.093 17.1 25 6.1 100290 35
2010-11-25 08:10:49 51°19.803 2°52.092 12.9 307 6.1 100290 35
2010-11-25 08:10:55 51°19.813 2°52.092 16.5 22 6.1 100290 37
2010-11-25 08:10:59 51°19.819 2°52.091 11.4 280 6.1 100290 37
2010-11-25 08:11:04 51°19.827 2°52.091 12.5 24 6.1 100290 37
2010-11-25 08:11:09 51°19.833 2°52.09 16.7 305 6.1 100290 37
2010-11-25 08:11:14 51°19.839 2°52.09 15.2 315 6.1 100280 36
2010-11-25 08:11:19 51°19.846 2°52.09 12.3 302 6.1 100280 36
2010-11-25 08:11:24 51°19.852 2°52.089 14.7 27 6.1 100270 36
2010-11-25 08:11:29 51°19.859 2°52.089 15 311 6.1 100270 36
2010-11-25 08:11:35 51°19.866 2°52.088 14.2 21 6.1 100280 37
2010-11-25 08:11:39 51°19.872 2°52.087 15.9 305 6.1 100280 37
2010-11-25 08:11:44 51°19.879 2°52.085 11.8 316 6.1 100280 36
2010-11-25 08:11:49 51°19.887 2°52.084 11.9 306 6.1 100280 36
2010-11-25 08:11:55 51°19.896 2°52.083 13.1 22 6.1 100270 36
2010-11-25 08:11:59 51°19.902 2°52.082 9.8 283 6.1 100270 36
2010-11-25 08:12:03 51°19.907 2°52.08 11.3 25 6.1 100280 36
2010-11-25 08:12:09 51°19.915 2°52.079 14.8 305 6.1 100280 36
2010-11-25 08:12:15 51°19.923 2°52.078 13.7 318 6.1 100280 37
2010-11-25 08:12:19 51°19.928 2°52.077 11.6 303 6.1 100280 37
2010-11-25 08:12:23 51°19.934 2°52.075 12.3 316 6.1 100270 37
2010-11-25 08:12:29 51°19.943 2°52.074 12.9 307 6.1 100270 37
2010-11-25 08:12:34 51°19.95 2°52.073 11.6 315 6.1 100300 36
2010-11-25 08:12:39 51°19.957 2°52.071 10.7 306 6.1 100300 36
2010-11-25 08:12:44 51°19.965 2°52.07 12.4 317 6.1 100290 37
2010-11-25 08:12:49 51°19.973 2°52.069 11.4 302 6.1 100290 37
2010-11-25 08:12:55 51°19.983 2°52.067 10.7 28 6.1 100290 36
2010-11-25 08:12:59 51°19.989 2°52.066 14.5 305 6.1 100290 36
2010-11-25 08:13:04 51°19.998 2°52.065 12.8 23 6.2 100280 38
2010-11-25 08:13:09 51°20.006 2°52.064 12.6 307 6.2 100280 38
2010-11-25 08:13:15 51°20.017 2°52.062 13.5 318 6.2 100280 37
2010-11-25 08:13:19 51°20.024 2°52.061 11.8 305 6.2 100280 37
2010-11-25 08:13:23 51°20.031 2°52.06 10.8 319 6.2 100300 37
2010-11-25 08:13:29 51°20.041 2°52.058 12.4 310 6.2 100300 37
2010-11-25 08:13:34 51°20.049 2°52.058 10.7 19 6.2 100290 37
2010-11-25 08:13:39 51°20.057 2°52.056 10.5 306 6.2 100290 37
2010-11-25 08:13:44 51°20.065 2°52.054 14.7 319 6.2 100290 38
2010-11-25 08:13:49 51°20.074 2°52.053 11.4 303 6.2 100290 38
2010-11-25 08:13:55 51°20.085 2°52.051 12.5 319 6.3 100300 37
2010-11-25 08:13:59 51°20.092 2°52.05 12 285 6.3 100300 37
2010-11-25 08:14:03 51°20.098 2°52.05 10.4 321 6.3 100290 38
2010-11-25 08:14:09 51°20.109 2°52.048 11.4 306 6.3 100290 38
2010-11-25 08:14:15 51°20.119 2°52.047 11.1 317 6.2 100300 38
2010-11-25 08:14:19 51°20.126 2°52.046 13.7 302 6.2 100300 38
2010-11-25 08:14:23 51°20.132 2°52.046 12.9 317 6.2 100280 38
2010-11-25 08:14:29 51°20.142 2°52.044 13.7 308 6.2 100280 38
2010-11-25 08:14:34 51°20.15 2°52.043 13.3 319 6.2 100280 38
2010-11-25 08:14:39 51°20.157 2°52.043 12.6 306 6.2 100280 38
2010-11-25 08:14:43 51°20.163 2°52.042 12.1 318 6.3 100270 38
2010-11-25 08:14:50 51°20.173 2°52.04 14.1 305 6.3 100270 38
2010-11-25 08:14:54 51°20.179 2°52.039 13.5 318 6.2 100280 36
2010-11-25 08:14:59 51°20.186 2°52.038 14 308 6.2 100280 36
2010-11-25 08:15:04 51°20.193 2°52.038 13.6 316 6.2 100290 36
2010-11-25 08:15:10 51°20.202 2°52.036 12.7 311 6.2 100290 36
2010-11-25 08:15:14 51°20.208 2°52.035 13 317 6.2 100290 36
2010-11-25 08:15:19 51°20.216 2°52.034 12 321 6.2 100290 36
2010-11-25 08:15:23 51°20.223 2°52.033 10.7 318 6.2 100290 35
2010-11-25 08:15:29 51°20.232 2°52.032 13.6 308 6.2 100290 35
2010-11-25 08:15:34 51°20.24 2°52.031 13.2 320 6.2 100280 37
2010-11-25 08:15:39 51°20.248 2°52.03 10.5 306 6.2 100280 37
2010-11-25 08:15:44 51°20.256 2°52.029 14.4 319 6.2 100280 36
2010-11-25 08:15:49 51°20.264 2°52.028 12.9 308 6.2 100280 36
2010-11-25 08:15:55 51°20.274 2°52.026 13.2 316 6.2 100290 37
2010-11-25 08:15:59 51°20.28 2°52.025 10.9 285 6.2 100290 37
2010-11-25 08:16:04 51°20.287 2°52.024 11.1 316 6.3 100290 37
2010-11-25 08:16:09 51°20.293 2°52.023 12.9 309 6.3 100290 37
2010-11-25 08:16:14 51°20.298 2°52.022 12.7 316 6.2 100270 36
2010-11-25 08:16:19 51°20.304 2°52.021 11.9 307 6.2 100270 36
2010-11-25 08:16:23 51°20.309 2°52.02 13.1 319 6.2 100260 38
2010-11-25 08:16:29 51°20.317 2°52.017 11.7 309 6.2 100260 38
2010-11-25 08:16:34 51°20.324 2°52.016 11.7 319 6.2 100250 36
2010-11-25 08:16:39 51°20.331 2°52.014 11.1 308 6.2 100250 36
2010-11-25 08:16:43 51°20.338 2°52.013 11.7 315 6.2 100270 35
2010-11-25 08:16:49 51°20.347 2°52.012 11.6 304 6.2 100270 35
2010-11-25 08:16:54 51°20.355 2°52.011 11.8 316 6.2 100280 36
2010-11-25 08:16:59 51°20.362 2°52.01 12.4 310 6.2 100280 36
2010-11-25 08:17:04 51°20.37 2°52.008 12.9 318 6.2 100280 36
2010-11-25 08:17:09 51°20.378 2°52.008 12.1 309 6.2 100280 36
2010-11-25 08:17:15 51°20.388 2°52.006 12.8 321 6.2 100280 35
2010-11-25 08:17:19 51°20.394 2°52.005 10 306 6.2 100280 35
2010-11-25 08:17:23 51°20.4 2°52.004 12.5 316 6.2 100300 36
2010-11-25 08:17:30 51°20.411 2°52.002 11.4 311 6.2 100300 36
2010-11-25 08:17:34 51°20.416 2°52.001 11.7 319 6.2 100290 35
2010-11-25 08:17:39 51°20.424 2°52 10.8 305 6.2 100290 35
2010-11-25 08:17:44 51°20.432 2°51.998 13.1 320 6.2 100270 36
2010-11-25 08:17:49 51°20.44 2°51.998 9.7 307 6.2 100270 36
2010-11-25 08:17:55 51°20.45 2°51.996 12.2 319 6.2 100270 36
2010-11-25 08:17:59 51°20.457 2°51.995 10.9 282 6.2 100270 36
2010-11-25 08:18:04 51°20.466 2°51.993 11.5 317 6.2 100270 36
2010-11-25 08:18:10 51°20.477 2°51.991 10.9 308 6.2 100270 36
2010-11-25 08:18:14 51°20.485 2°51.99 11.8 317 6.2 100280 37
2010-11-25 08:18:19 51°20.493 2°51.989 13.7 310 6.2 100280 37
2010-11-25 08:18:24 51°20.502 2°51.987 13.1 316 6.2 100290 35
2010-11-25 08:18:30 51°20.512 2°51.986 13.9 309 6.2 100290 35
2010-11-25 08:18:35 51°20.521 2°51.986 13.4 24 6.2 100280 36
2010-11-25 08:18:39 51°20.529 2°51.987 13.2 307 6.2 100280 36
2010-11-25 08:18:44 51°20.538 2°51.987 11.7 21 6.2 100270 35
2010-11-25 08:18:49 51°20.546 2°51.989 11.3 306 6.2 100270 35
2010-11-25 08:18:55 51°20.556 2°51.991 13.9 24 6.2 100270 36
2010-11-25 08:18:59 51°20.564 2°51.993 12.7 309 6.2 100270 36
2010-11-25 08:19:04 51°20.573 2°51.994 13.4 22 6.2 100280 34
2010-11-25 08:19:09 51°20.582 2°51.996 12.3 310 6.2 100280 34
2010-11-25 08:19:15 51°20.593 2°51.998 14.5 19 6.2 100260 34
2010-11-25 08:19:19 51°20.6 2°52 11.4 306 6.2 100260 34
2010-11-25 08:19:24 51°20.61 2°52.002 13.2 20 6.2 100280 35
2010-11-25 08:19:30 51°20.621 2°52.005 12.6 305 6.2 100280 35
2010-11-25 08:19:35 51°20.63 2°52.008 12.6 26 6.2 100270 34
2010-11-25 08:19:39 51°20.637 2°52.011 10.9 303 6.2 100270 34
2010-11-25 08:19:44 51°20.646 2°52.014 11.7 23 6.2 100280 34
2010-11-25 08:19:49 51°20.654 2°52.017 11.8 306 6.2 100280 34
2010-11-25 08:19:55 51°20.665 2°52.019 11.9 19 6.2 100280 34
2010-11-25 08:19:59 51°20.672 2°52.021 10.2 286 6.2 100280 34
2010-11-25 08:20:04 51°20.681 2°52.023 10.5 22 6.2 100290 33
2010-11-25 08:20:09 51°20.689 2°52.026 13.8 309 6.2 100290 33
2010-11-25 08:20:14 51°20.698 2°52.028 13 21 6.2 100260 34
2010-11-25 08:20:19 51°20.706 2°52.031 12.3 305 6.2 100260 34
2010-11-25 08:20:24 51°20.714 2°52.033 12.2 24 6.2 100280 34
2010-11-25 08:20:29 51°20.723 2°52.036 11.5 306 6.2 100280 34
2010-11-25 08:20:35 51°20.733 2°52.038 12.9 25 6.2 100300 35
2010-11-25 08:20:39 51°20.74 2°52.04 13.1 306 6.2 100300 35
2010-11-25 08:20:44 51°20.748 2°52.042 14.5 23 6.3 100280 36
2010-11-25 08:20:50 51°20.758 2°52.045 14.2 304 6.3 100280 36
2010-11-25 08:20:55 51°20.767 2°52.047 12.5 20 6.3 100270 36
2010-11-25 08:20:59 51°20.775 2°52.049 12.3 279 6.3 100270 36
2010-11-25 08:21:04 51°20.784 2°52.051 10.2 21 6.2 100260 33
2010-11-25 08:21:09 51°20.793 2°52.053 10.1 309 6.2 100260 33
2010-11-25 08:21:14 51°20.8 2°52.055 11.5 24 6.2 100280 34
2010-11-25 08:21:19 51°20.808 2°52.057 10.8 308 6.2 100280 34
2010-11-25 08:21:24 51°20.817 2°52.059 12.1 19 6.2 100280 34
2010-11-25 08:21:29 51°20.826 2°52.06 13.2 303 6.2 100280 34
2010-11-25 08:21:35 51°20.836 2°52.063 14.1 27 6.3 100260 34
2010-11-25 08:21:39 51°20.843 2°52.065 10.8 308 6.3 100260 34
2010-11-25 08:21:45 51°20.851 2°52.068 10.1 18 6.2 100280 34
2010-11-25 08:21:50 51°20.858 2°52.069 10.2 305 6.2 100280 34
2010-11-25 08:21:55 51°20.864 2°52.071 10 315 6.2 100280 33
2010-11-25 08:21:59 51°20.869 2°52.073 13.2 310 6.2 100280 33
2010-11-25 08:22:04 51°20.876 2°52.074 12.9 22 6.3 100260 34
2010-11-25 08:22:09 51°20.883 2°52.076 11.3 307 6.3 100260 34
2010-11-25 08:22:14 51°20.89 2°52.077 10.1 26 6.3 100270 35
2010-11-25 08:22:19 51°20.897 2°52.079 11.9 307 6.3 100270 35
2010-11-25 08:22:24 51°20.905 2°52.08 11.5 25 6.3 100270 35
2010-11-25 08:22:29 51°20.911 2°52.083 13.8 303 6.3 100270 35
2010-11-25 08:22:35 51°20.92 2°52.083 12.5 24 6.3 100270 36
2010-11-25 08:22:39 51°20.926 2°52.085 12.5 306 6.3 100270 36
2010-11-25 08:22:43 51°20.932 2°52.085 12.1 25 6.3 100260 36
2010-11-25 08:22:49 51°20.941 2°52.088 13.1 306 6.3 100260 36
2010-11-25 08:22:55 51°20.951 2°52.09 13.1 24 6.3 100260 34
2010-11-25 08:22:59 51°20.958 2°52.092 12.3 286 6.3 100260 34
2010-11-25 08:23:03 51°20.964 2°52.093 13.3 22 6.3 100270 34
2010-11-25 08:23:09 51°20.975 2°52.095 13 310 6.3 100270 34
2010-11-25 08:23:14 51°20.983 2°52.097 13.9 21 6.3 100280 35
2010-11-25 08:23:19 51°20.991 2°52.099 12.7 306 6.3 100280 35
2010-11-25 08:23:23 51°20.999 2°52.101 12.3 24 6.3 100260 35
2010-11-25 08:23:29 51°21.009 2°52.104 11.4 304 6.3 100260 35
2010-11-25 08:23:34 51°21.017 2°52.106 10.7 24 6.3 100270 34
2010-11-25 08:23:39 51°21.026 2°52.109 12 310 6.3 100270 34
2010-11-25 08:23:44 51°21.034 2°52.111 14.2 25 6.3 100280 34
2010-11-25 08:23:49 51°21.042 2°52.114 11.4 306 6.3 100280 34
2010-11-25 08:23:55 51°21.051 2°52.118 12.1 26 6.3 100290 35
2010-11-25 08:23:59 51°21.057 2°52.12 9.4 312 6.3 100290 35
2010-11-25 08:24:04 51°21.063 2°52.122 9.9 23 6.4 100310 36
2010-11-25 08:24:10 51°21.072 2°52.125 10.1 303 6.4 100310 36
2010-11-25 08:24:14 51°21.077 2°52.126 11.3 23 6.3 100290 35
2010-11-25 08:24:19 51°21.084 2°52.127 9.5 303 6.3 100290 35
2010-11-25 08:24:23 51°21.089 2°52.129 9.3 19 6.3 100280 34
2010-11-25 08:24:29 51°21.098 2°52.131 10.9 307 6.3 100280 34
2010-11-25 08:24:34 51°21.105 2°52.132 10.3 24 6.3 100270 33
2010-11-25 08:24:39 51°21.113 2°52.134 10.3 307 6.3 100270 33
2010-11-25 08:24:44 51°21.121 2°52.136 10 24 6.3 100290 35
2010-11-25 08:24:49 51°21.129 2°52.138 12.5 306 6.3 100290 35
2010-11-25 08:24:55 51°21.139 2°52.141 10.8 22 6.3 100280 36
2010-11-25 08:24:59 51°21.146 2°52.142 14 283 6.3 100280 36
2010-11-25 08:25:04 51°21.155 2°52.144 10.1 21 6.3 100280 34
2010-11-25 08:25:10 51°21.165 2°52.146 10.1 308 6.3 100280 34
2010-11-25 08:25:15 51°21.173 2°52.148 9.8 317 6.3 100270 35
2010-11-25 08:25:19 51°21.18 2°52.15 11.6 305 6.3 100270 35
2010-11-25 08:25:24 51°21.189 2°52.152 10 23 6.3 100280 35
2010-11-25 08:25:30 51°21.198 2°52.155 13.5 304 6.3 100280 35
2010-11-25 08:25:35 51°21.206 2°52.158 10.2 25 6.3 100270 36
2010-11-25 08:25:39 51°21.213 2°52.159 11.9 304 6.3 100270 36
2010-11-25 08:25:44 51°21.222 2°52.162 11.4 25 6.4 100280 35
2010-11-25 08:25:49 51°21.231 2°52.164 10.3 308 6.4 100280 35
2010-11-25 08:25:55 51°21.242 2°52.167 10.8 23 6.3 100270 35
2010-11-25 08:25:59 51°21.249 2°52.17 11.2 306 6.3 100270 35
2010-11-25 08:26:04 51°21.258 2°52.172 13.3 26 6.3 100280 34
2010-11-25 08:26:10 51°21.269 2°52.176 11.2 308 6.3 100280 34
2010-11-25 08:26:15 51°21.277 2°52.179 13.8 21 6.3 100270 34
2010-11-25 08:26:19 51°21.283 2°52.181 12.2 309 6.3 100270 34
2010-11-25 08:26:24 51°21.291 2°52.182 11.2 22 6.3 100270 35
2010-11-25 08:26:29 51°21.299 2°52.184 11.8 308 6.3 100270 35
2010-11-25 08:26:34 51°21.307 2°52.185 12.6 26 6.3 100290 34
2010-11-25 08:26:39 51°21.315 2°52.188 11.6 309 6.3 100290 34
2010-11-25 08:26:43 51°21.322 2°52.189 12 21 6.3 100270 35
2010-11-25 08:26:49 51°21.333 2°52.191 11.2 307 6.3 100270 35
2010-11-25 08:26:54 51°21.341 2°52.193 12 23 6.4 100280 34
2010-11-25 08:26:59 51°21.35 2°52.195 12.1 283 6.4 100280 34
2010-11-25 08:27:04 51°21.358 2°52.197 10.1 23 6.3 100280 35
2010-11-25 08:27:09 51°21.366 2°52.199 12.9 307 6.3 100280 35
2010-11-25 08:27:14 51°21.375 2°52.201 11.6 20 6.3 100280 34
2010-11-25 08:27:19 51°21.383 2°52.203 12.3 302 6.3 100280 34
2010-11-25 08:27:24 51°21.392 2°52.205 13.7 316 6.3 100300 35
2010-11-25 08:27:29 51°21.401 2°52.208 12.4 304 6.3 100300 35
2010-11-25 08:27:34 51°21.41 2°52.21 11.3 316 6.4 100290 35
2010-11-25 08:27:39 51°21.419 2°52.212 14 310 6.4 100290 35
2010-11-25 08:27:44 51°21.428 2°52.215 12.4 315 6.4 100290 35
2010-11-25 08:27:49 51°21.436 2°52.217 12.5 307 6.4 100290 35
2010-11-25 08:27:55 51°21.446 2°52.22 16 20 6.4 100280 36
2010-11-25 08:27:59 51°21.452 2°52.22 10.8 306 6.4 100280 36
2010-11-25 08:28:04 51°21.46 2°52.222 12.2 25 6.4 100280 35
2010-11-25 08:28:10 51°21.469 2°52.224 14.1 304 6.4 100280 35
2010-11-25 08:28:15 51°21.477 2°52.227 11.3 317 6.4 100270 35
2010-11-25 08:28:19 51°21.484 2°52.228 12.8 310 6.4 100270 35
2010-11-25 08:28:24 51°21.492 2°52.231 11.2 25 6.3 100270 35
2010-11-25 08:28:30 51°21.503 2°52.234 11.3 305 6.3 100270 35
2010-11-25 08:28:34 51°21.509 2°52.236 12.7 23 6.4 100280 35
2010-11-25 08:28:39 51°21.517 2°52.239 10.7 304 6.4 100280 35
2010-11-25 08:28:44 51°21.525 2°52.241 11.3 27 6.4 100290 35
2010-11-25 08:28:50 51°21.535 2°52.244 10.3 307 6.4 100290 35
2010-11-25 08:28:55 51°21.544 2°52.246 13 21 6.3 100280 35
2010-11-25 08:28:59 51°21.551 2°52.247 13.2 281 6.3 100280 35
2010-11-25 08:29:03 51°21.558 2°52.25 10.4 25 6.3 100270 35
2010-11-25 08:29:09 51°21.569 2°52.252 12.7 306 6.3 100270 35
2010-11-25 08:29:14 51°21.578 2°52.254 10.3 19 6.3 100290 34
2010-11-25 08:29:19 51°21.586 2°52.257 13.9 306 6.3 100290 34
2010-11-25 08:29:24 51°21.595 2°52.26 10.2 26 6.3 100280 34
2010-11-25 08:29:29 51°21.604 2°52.262 9.9 306 6.3 100280 34
2010-11-25 08:29:34 51°21.613 2°52.264 12.9 21 6.3 100290 36
2010-11-25 08:29:39 51°21.622 2°52.266 14.8 305 6.3 100290 36
2010-11-25 08:29:44 51°21.631 2°52.268 13.9 23 6.3 100300 34
2010-11-25 08:29:49 51°21.64 2°52.271 14.5 307 6.3 100300 34
2010-11-25 08:29:54 51°21.649 2°52.273 16.4 22 6.3 100290 35
2010-11-25 08:29:59 51°21.657 2°52.276 14.1 307 6.3 100290 35
2010-11-25 08:30:04 51°21.666 2°52.279 11.4 22 6.3 100280 36
2010-11-25 08:30:09 51°21.675 2°52.282 9.7 307 6.3 100280 36
2010-11-25 08:30:14 51°21.684 2°52.284 11.9 22 6.3 100280 35
2010-11-25 08:30:19 51°21.693 2°52.286 7.8 306 6.3 100280 35
2010-11-25 08:30:24 51°21.701 2°52.288 9.6 26 6.3 100280 34
2010-11-25 08:30:29 51°21.71 2°52.29 5.2 304 6.3 100280 34
2010-11-25 08:30:34 51°21.718 2°52.293 11.8 20 6.3 100280 34
2010-11-25 08:30:39 51°21.727 2°52.296 14.2 305 6.3 100280 34
2010-11-25 08:30:44 51°21.735 2°52.301 11.6 23 6.3 100270 35
2010-11-25 08:30:49 51°21.744 2°52.303 13.6 302 6.3 100270 35
2010-11-25 08:30:55 51°21.755 2°52.306 10.4 23 6.3 100280 35
2010-11-25 08:30:59 51°21.762 2°52.308 11.5 285 6.3 100280 35
2010-11-25 08:31:04 51°21.77 2°52.311 5.2 25 6.3 100300 35
2010-11-25 08:31:09 51°21.779 2°52.313 12 309 6.3 100300 35
2010-11-25 08:31:15 51°21.789 2°52.317 12.8 20 6.3 100280 35
2010-11-25 08:31:19 51°21.795 2°52.321 15.1 310 6.3 100280 35
2010-11-25 08:31:24 51°21.804 2°52.323 9.4 25 6.3 100270 34
2010-11-25 08:31:29 51°21.812 2°52.325 11 303 6.3 100270 34
2010-11-25 08:31:35 51°21.822 2°52.328 10.5 24 6.3 100290 36
2010-11-25 08:31:39 51°21.828 2°52.331 13.9 305 6.3 100290 36
2010-11-25 08:31:44 51°21.837 2°52.334 13.1 20 6.3 100270 36
2010-11-25 08:31:50 51°21.848 2°52.337 12.4 306 6.3 100270 36
2010-11-25 08:31:54 51°21.854 2°52.339 9.3 318 6.3 100290 36
2010-11-25 08:31:59 51°21.863 2°52.341 11.1 280 6.3 100290 36
2010-11-25 08:32:04 51°21.872 2°52.344 15.2 23 6.3 100290 35
2010-11-25 08:32:09 51°21.88 2°52.346 14.5 307 6.3 100290 35
2010-11-25 08:32:14 51°21.889 2°52.349 11.1 24 6.3 100280 36
2010-11-25 08:32:19 51°21.897 2°52.352 12.3 306 6.3 100280 36
2010-11-25 08:32:24 51°21.905 2°52.355 12.8 19 6.3 100290 37
2010-11-25 08:32:29 51°21.913 2°52.359 12.7 310 6.3 100290 37
2010-11-25 08:32:35 51°21.922 2°52.362 10.1 23 6.3 100260 34
2010-11-25 08:32:39 51°21.928 2°52.365 10.9 307 6.3 100260 34
2010-11-25 08:32:44 51°21.935 2°52.367 12.6 21 6.3 100290 36
2010-11-25 08:32:50 51°21.945 2°52.37 9.8 307 6.3 100290 36
2010-11-25 08:32:55 51°21.953 2°52.372 9 24 6.3 100310 37
2010-11-25 08:32:59 51°21.959 2°52.374 9.1 305 6.3 100310 37
2010-11-25 08:33:04 51°21.968 2°52.377 10.4 23 6.3 100280 36
2010-11-25 08:33:09 51°21.977 2°52.38 12.1 304 6.3 100280 36
2010-11-25 08:33:15 51°21.987 2°52.384 9.7 25 6.3 100300 35
2010-11-25 08:33:19 51°21.994 2°52.386 12.3 308 6.3 100300 35
2010-11-25 08:33:24 51°22.004 2°52.389 13.4 22 6.3 100300 37
2010-11-25 08:33:29 51°22.013 2°52.392 14 304 6.3 100300 37
2010-11-25 08:33:34 51°22.023 2°52.396 11.9 24 6.3 100290 37
2010-11-25 08:33:39 51°22.032 2°52.399 13.6 303 6.3 100290 37
2010-11-25 08:33:44 51°22.041 2°52.403 11 24 6.3 100290 36
2010-11-25 08:33:49 51°22.051 2°52.406 10.7 308 6.3 100290 36
2010-11-25 08:33:54 51°22.061 2°52.41 10.6 23 6.3 100280 36
2010-11-25 08:33:59 51°22.07 2°52.413 11.2 281 6.3 100280 36
2010-11-25 08:34:04 51°22.08 2°52.416 11.4 24 6.3 100270 37
2010-11-25 08:34:09 51°22.089 2°52.42 13 306 6.3 100270 37
2010-11-25 08:34:14 51°22.098 2°52.423 14.7 24 6.3 100280 35
2010-11-25 08:34:19 51°22.107 2°52.427 10.5 304 6.3 100280 35
2010-11-25 08:34:23 51°22.115 2°52.429 12.3 26 6.3 100270 37
2010-11-25 08:34:29 51°22.126 2°52.433 11.1 303 6.3 100270 37
2010-11-25 08:34:34 51°22.136 2°52.437 13.4 23 6.3 100290 36
2010-11-25 08:34:39 51°22.144 2°52.44 11.6 303 6.3 100290 36